KUIPER-00047

Last updated on Thu Jul 03 2025 00:02:08 GMT+0000 (Coordinated Universal Time)

1 64507U 25134H 25183.58335648 -.00000875 00000+0 -14754-4 0 9994 2 64507 51.8628 287.0492 0011077 155.9345 259.6400 15.33914496 1309
UTC large
Height (km)
Speed (km/s)
/
Latitude / Longitude
Inclination (degrees)
Orbital Period (minutes)
Azimuth
Elevation
Range (km)
Doppler Factor

Next 0 passes for location: London (51.5072 / 0.1276)

Sorry there are no passes over London.